GW2992 Weather Reports


time (UTC)temp
C
wind
direction
speed
KPH
gust
KPH
rain 1hr
cm
rain 24hr
cm
rain mn
cm
humidity
%
barometer
mb
20260507161855 20 293 3.2 3.2 0.00 0.00 0.00 85 1015.4
20260507161352 18 308 3.2 3.2 0.00 0.00 0.00 87 1015.4
20260507160849 18 282 1.6 3.2 0.00 0.00 0.00 89 1015.4
20260507160344 18 319 1.6 3.2 0.00 0.00 0.00 89 1015.6
20260507155841 19 243 3.2 4.8 0.00 0.00 0.00 88 1015.5
20260507155336 20 265 3.2 3.2 0.00 0.00 0.00 87 1015.5
20260507154833 18 312 1.6 1.6 0.00 0.00 0.00 89 1015.6
20260507154331 18 309 3.2 3.2 0.00 0.00 0.00 89 1015.7
20260507153828 18 284 3.2 3.2 0.00 0.00 0.00 88 1015.7
20260507153324 19 290 3.2 3.2 0.00 0.00 0.00 87 1015.6
20260507152821 19 295 1.6 1.6 0.00 0.00 0.00 88 1015.5
20260507152317 18 86 1.6 1.6 0.00 0.00 0.00 91 1015.4
20260507151813 17 324 0.0 1.6 0.00 0.00 0.00 92 1015.6
20260507151309 17 260 3.2 3.2 0.00 0.00 0.00 93 1015.7
20260507150807 17 315 1.6 3.2 0.00 0.00 0.00 93 1015.5
20260507150303 17 34 0.0 0.0 0.00 0.00 0.00 93 1015.7
20260507145759 17 306 1.6 1.6 0.00 0.00 0.00 94 1015.5
20260507145256 17 53 0.0 0.0 0.00 0.00 0.00 94 1015.5
20260507144753 16 71 1.6 1.6 0.00 0.00 0.00 95 1015.6
20260507144250 16 81 3.2 4.8 0.00 0.00 0.00 96 1015.4
20260507143747 16 141 3.2 3.2 0.00 0.00 0.00 97 1015.5
20260507143244 16 87 3.2 3.2 0.00 0.00 0.00 97 1015.6
20260507142740 16 65 0.0 0.0 0.00 0.00 0.00 98 1015.2
20260507142237 16 78 1.6 1.6 0.00 0.00 0.00 98 1015.3
20260507141733 15 83 1.6 1.6 0.00 0.00 0.00 98 1015.3
20260507141230 15 135 1.6 3.2 0.00 0.00 0.00 99 1015.1
20260507140726 15 169 3.2 3.2 0.00 0.00 0.00 99 1015.2
20260507140224 15 140 1.6 3.2 0.00 0.00 0.00 99 1015.2
20260507135721 15 154 1.6 3.2 0.00 0.00 0.00 99 1015.1
20260507135218 14 124 3.2 3.2 0.00 0.00 0.00 99 1015.2
20260507134714 14 94 3.2 4.8 0.00 0.00 0.00 99 1015.1
20260507134210 14 78 1.6 1.6 0.00 0.00 0.00 99 1015.1
20260507133707 14 62 1.6 1.6 0.00 0.00 0.00 99 1015.0
20260507133204 14 103 3.2 3.2 0.00 0.00 0.00 99 1015.0
20260507132701 13 96 3.2 3.2 0.00 0.00 0.00 99 1014.8
20260507132157 13 96 3.2 4.8 0.00 0.00 0.00 99 1015.0
20260507131654 13 97 3.2 4.8 0.00 0.00 0.00 99 1014.8
20260507131152 13 89 1.6 3.2 0.00 0.00 0.00 98 1014.8
20260507130648 14 71 1.6 1.6 0.00 0.00 0.00 98 1014.8
20260507130146 14 77 1.6 1.6 0.00 0.00 0.00 98 1014.9
20260507125645 14 101 3.2 3.2 0.00 0.00 0.00 98 1014.7
20260507125142 14 80 1.6 3.2 0.00 0.00 0.00 98 1014.7
20260507124638 14 74 1.6 1.6 0.00 0.00 0.00 97 1014.6
20260507124136 14 78 1.6 1.6 0.00 0.00 0.00 97 1014.6
20260507123634 14 74 1.6 1.6 0.00 0.00 0.00 97 1014.6
20260507123131 14 98 3.2 4.8 0.00 0.00 0.00 97 1014.5
20260507122626 14 102 3.2 3.2 0.00 0.00 0.00 97 1014.5
20260507122122 14 72 1.6 1.6 0.00 0.00 0.00 97 1014.5
20260507121618 14 63 1.6 1.6 0.00 0.00 0.00 98 1014.7
20260507121114 14 59 1.6 1.6 0.00 0.00 0.00 98 1014.4
20260507120610 14 73 1.6 1.6 0.00 0.00 0.00 98 1014.6
20260507120107 14 73 1.6 1.6 0.00 0.00 0.00 98 1014.5
20260507115603 14 91 3.2 3.2 0.00 0.00 0.00 97 1014.5
20260507115059 14 72 1.6 1.6 0.00 0.00 0.00 97 1014.4
20260507114555 14 74 3.2 3.2 0.00 0.00 0.00 97 1014.7
20260507114053 14 89 3.2 3.2 0.00 0.00 0.00 97 1014.4
20260507113549 14 88 1.6 3.2 0.00 0.00 0.00 97 1014.6
20260507113047 14 67 1.6 1.6 0.00 0.00 0.00 97 1014.6
20260507112545 14 82 3.2 3.2 0.00 0.00 0.00 97 1014.7
20260507112041 14 61 1.6 1.6 0.00 0.00 0.00 97 1014.6
20260507111538 14 92 3.2 3.2 0.00 0.00 0.00 97 1014.6
20260507111035 14 70 1.6 3.2 0.00 0.00 0.00 97 1014.8
20260507110531 14 53 0.0 0.0 0.00 0.00 0.00 97 1014.9
20260507110028 14 53 0.0 0.0 0.00 0.00 0.00 97 1014.7
20260507105525 15 54 0.0 0.0 0.00 0.00 0.00 97 1014.7
20260507105021 15 54 0.0 1.6 0.00 0.00 0.00 97 1014.6
20260507104519 15 47 0.0 0.0 0.00 0.00 0.00 97 1014.8
20260507104015 15 58 1.6 1.6 0.00 0.00 0.00 97 1014.9
20260507103511 15 44 1.6 1.6 0.00 0.00 0.00 98 1014.9
20260507103007 15 38 0.0 1.6 0.00 0.00 0.00 98 1014.9
20260507102504 15 39 1.6 1.6 0.00 0.00 0.00 98 1014.8
20260507102000 15 52 1.6 1.6 0.00 0.00 0.00 98 1015.0
20260507101455 15 55 1.6 1.6 0.00 0.00 0.00 99 1014.9
20260507100953 15 52 1.6 1.6 0.00 0.00 0.00 99 1014.9
20260507100450 15 83 1.6 3.2 0.00 0.00 0.00 99 1015.2
20260507095948 15 34 0.0 0.0 0.00 0.00 0.00 99 1015.1
20260507095445 15 47 1.6 1.6 0.00 0.00 0.00 99 1015.1
20260507094942 15 41 1.6 1.6 0.00 0.00 0.00 99 1015.0
20260507094438 15 102 3.2 3.2 0.00 0.00 0.00 99 1015.0
20260507093935 15 72 1.6 1.6 0.00 0.00 0.00 99 1015.2
20260507093433 15 45 1.6 1.6 0.00 0.00 0.00 99 1015.2
20260507092931 15 48 1.6 1.6 0.00 0.00 0.00 99 1015.3
20260507092426 15 40 0.0 0.0 0.00 0.00 0.00 99 1015.1
20260507091918 15 83 1.6 1.6 0.00 0.00 0.00 99 1015.3
20260507091415 15 47 0.0 1.6 0.00 0.00 0.00 99 1015.4
20260507090910 15 46 0.0 0.0 0.00 0.00 0.00 99 1015.3
20260507090407 15 45 0.0 0.0 0.00 0.00 0.00 99 1015.3
20260507085904 15 38 0.0 0.0 0.00 0.00 0.00 99 1015.3
20260507085400 15 35 0.0 0.0 0.00 0.00 0.00 99 1015.2
20260507084858 15 44 0.0 0.0 0.00 0.00 0.00 99 1015.5
20260507084354 15 37 0.0 0.0 0.00 0.00 0.00 99 1015.6
20260507083851 15 50 0.0 0.0 0.00 0.00 0.00 99 1015.4
20260507083348 15 45 0.0 1.6 0.00 0.00 0.00 98 1015.6
20260507082844 15 53 0.0 1.6 0.00 0.00 0.00 99 1015.5
20260507082340 15 50 0.0 0.0 0.00 0.00 0.00 98 1015.6
20260507081837 15 45 0.0 0.0 0.00 0.00 0.00 98 1015.7
20260507081333 15 45 0.0 0.0 0.00 0.00 0.00 98 1015.6
20260507080830 15 45 0.0 0.0 0.00 0.00 0.00 98 1015.7
20260507080326 15 41 0.0 1.6 0.00 0.00 0.00 98 1015.8
20260507075822 15 36 0.0 0.0 0.00 0.00 0.00 98 1015.9
20260507075318 15 47 0.0 0.0 0.00 0.00 0.00 98 1015.9
20260507074815 15 45 0.0 1.6 0.00 0.00 0.00 98 1015.9
20260507074312 15 40 1.6 1.6 0.00 0.00 0.00 98 1015.9
20260507073809 15 37 0.0 0.0 0.00 0.00 0.00 97 1016.1
20260507073306 15 95 3.2 3.2 0.00 0.00 0.00 98 1016.2
20260507072803 15 69 1.6 1.6 0.00 0.00 0.00 98 1015.9
20260507072301 15 69 0.0 1.6 0.00 0.00 0.00 97 1015.9
20260507071758 15 67 0.0 0.0 0.00 0.00 0.00 98 1016.1
20260507071254 15 64 0.0 1.6 0.00 0.00 0.00 97 1016.0
20260507070751 15 61 0.0 0.0 0.00 0.00 0.00 98 1016.2
20260507070248 15 62 1.6 1.6 0.00 0.00 0.00 98 1016.1
20260507065745 15 47 1.6 1.6 0.00 0.00 0.00 98 1016.1
20260507065241 15 308 0.0 1.6 0.00 0.00 0.00 98 1016.0
20260507064739 15 320 0.0 0.0 0.00 0.00 0.00 97 1015.9
20260507064238 15 324 1.6 1.6 0.00 0.00 0.00 97 1015.9
20260507063735 15 330 0.0 0.0 0.00 0.00 0.00 97 1016.0
20260507063231 15 325 0.0 0.0 0.00 0.00 0.00 97 1016.1
20260507062728 15 325 0.0 0.0 0.00 0.00 0.00 97 1016.1
20260507062226 15 324 0.0 0.0 0.00 0.00 0.00 97 1016.1
20260507061723 15 324 0.0 0.0 0.00 0.00 0.00 96 1015.9
20260507061221 15 324 0.0 0.0 0.00 0.00 0.00 96 1016.1
20260507060719 15 324 0.0 0.0 0.00 0.00 0.00 96 1016.2
20260507060215 15 324 0.0 0.0 0.00 0.00 0.00 96 1016.3
20260507055711 15 324 0.0 0.0 0.00 0.00 0.00 97 1016.2
20260507055207 15 324 0.0 0.0 0.00 0.00 0.00 97 1016.2
20260507054703 15 324 0.0 0.0 0.00 0.00 0.00 97 1016.1
20260507054200 15 324 0.0 0.0 0.00 0.00 0.00 97 1016.1
20260507053658 15 324 0.0 0.0 0.00 0.00 0.00 97 1016.2
20260507053156 15 324 0.0 0.0 0.00 0.00 0.00 97 1016.2
20260507052654 15 324 0.0 0.0 0.00 0.00 0.00 97 1016.1
20260507052150 15 324 0.0 0.0 0.00 0.00 0.00 97 1016.1
20260507051648 15 324 0.0 0.0 0.00 0.00 0.00 97 1016.1
20260507051144 15 324 0.0 0.0 0.00 0.00 0.00 96 1016.0
20260507050641 15 324 0.0 0.0 0.00 0.00 0.00 96 1016.0
20260507050138 15 324 0.0 0.0 0.00 0.00 0.00 95 1015.9
20260507045635 15 324 0.0 0.0 0.00 0.00 0.00 95 1015.8
20260507045132 16 324 0.0 0.0 0.00 0.00 0.00 95 1015.9
20260507044629 16 324 0.0 0.0 0.00 0.00 0.00 95 1015.9
20260507044125 16 324 0.0 0.0 0.00 0.00 0.00 95 1016.0
20260507043621 16 324 0.0 0.0 0.00 0.00 0.00 95 1015.9
20260507043119 16 324 0.0 0.0 0.00 0.00 0.00 95 1015.7
20260507042615 16 324 0.0 0.0 0.00 0.00 0.00 94 1015.8
20260507042110 16 324 0.0 0.0 0.00 0.00 0.00 94 1016.0
20260507041607 16 323 0.0 1.6 0.00 0.00 0.00 94 1015.7
20260507041104 16 324 0.0 0.0 0.00 0.00 0.00 94 1015.9
20260507040601 16 324 0.0 0.0 0.00 0.00 0.00 94 1015.8
20260507040057 16 324 0.0 0.0 0.00 0.00 0.00 94 1015.7
20260507035553 16 324 0.0 0.0 0.00 0.00 0.00 94 1015.8
20260507035049 16 324 0.0 0.0 0.00 0.00 0.00 94 1015.7
20260507034546 16 324 0.0 0.0 0.00 0.00 0.00 94 1015.7
20260507034044 16 324 0.0 0.0 0.00 0.00 0.00 94 1015.7
20260507033542 16 323 0.0 0.0 0.00 0.00 0.00 93 1015.8
20260507033039 16 302 1.6 3.2 0.00 0.00 0.00 93 1015.5
20260507032536 17 322 1.6 1.6 0.00 0.00 0.00 94 1015.9
20260507032032 17 319 0.0 1.6 0.00 0.00 0.00 93 1015.6
20260507031528 17 304 3.2 3.2 0.00 0.00 0.00 93 1015.5
20260507031026 17 313 1.6 3.2 0.00 0.00 0.00 93 1015.6
20260507030522 17 304 3.2 3.2 0.00 0.00 0.00 92 1015.5
20260507030021 17 315 0.0 1.6 0.00 0.00 0.00 92 1015.4
20260507025517 17 314 1.6 1.6 0.00 0.00 0.00 92 1015.1
20260507025014 17 308 1.6 1.6 0.00 0.00 0.00 92 1015.2
20260507024511 17 296 1.6 3.2 0.00 0.00 0.00 91 1015.2
20260507024003 17 307 1.6 1.6 0.00 0.00 0.00 91 1015.1
20260507023459 17 302 1.6 1.6 0.00 0.00 0.00 91 1014.9
20260507022956 18 287 1.6 3.2 0.00 0.00 0.00 90 1015.2
20260507022453 18 276 3.2 3.2 0.00 0.00 0.00 89 1015.0
20260507021948 18 295 4.8 4.8 0.00 0.00 0.00 89 1015.0
20260507021444 18 303 3.2 4.8 0.00 0.00 0.00 87 1015.2
20260507020942 18 263 1.6 3.2 0.00 0.00 0.00 85 1014.9
20260507020438 18 317 3.2 4.8 0.00 0.00 0.00 84 1015.1
20260507015935 19 296 6.4 9.7 0.00 0.00 0.00 82 1014.9
20260507015433 20 292 3.2 4.8 0.00 0.00 0.00 81 1015.2
20260507014924 20 326 1.6 1.6 0.00 0.00 0.00 79 1014.9
20260507014421 20 297 4.8 6.4 0.00 0.00 0.00 79 1015.0
20260507013917 20 274 3.2 4.8 0.00 0.00 0.00 76 1014.7
20260507013414 21 296 3.2 4.8 0.00 0.00 0.00 74 1014.7
20260507012911 21 271 3.2 3.2 0.00 0.00 0.00 73 1014.7
20260507012408 20 246 4.8 6.4 0.00 0.00 0.00 72 1014.8
20260507011859 21 281 6.4 6.4 0.00 0.00 0.00 70 1014.9
20260507011355 21 312 3.2 3.2 0.00 0.00 0.00 71 1014.7
20260507010849 21 310 4.8 6.4 0.00 0.00 0.00 70 1014.5
20260507010345 21 292 3.2 3.2 0.00 0.00 0.00 68 1014.6
20260507005843 21 327 4.8 6.4 0.00 0.00 0.00 68 1014.8
20260507005339 21 281 4.8 4.8 0.00 0.00 0.00 70 1014.6
20260507004836 21 295 9.7 12.9 0.00 0.00 0.00 68 1014.4
20260507004333 21 283 3.2 3.2 0.00 0.00 0.00 69 1014.7
20260507003830 21 271 6.4 6.4 0.00 0.00 0.00 67 1014.5
20260507003326 21 317 4.8 6.4 0.00 0.00 0.00 68 1014.5
20260507002821 21 290 6.4 6.4 0.00 0.00 0.00 67 1014.5
20260507002317 21 227 3.2 6.4 0.00 0.00 0.00 66 1014.5
20260507001815 21 279 6.4 9.7 0.00 0.00 0.00 67 1014.6
20260507001312 21 259 9.7 11.3 0.00 0.00 0.00 69 1014.5
20260507000808 21 287 3.2 3.2 0.00 0.00 0.00 68 1014.5
20260507000306 22 289 4.8 6.4 0.00 0.00 0.00 72 1014.3
20260506235800 22 317 6.4 9.7 0.00 0.00 0.00 71 1014.5
20260506235256 21 293 6.4 6.4 0.00 0.00 0.00 73 1014.5
20260506234753 21 239 4.8 4.8 0.00 0.00 0.00 74 1014.4
20260506234250 21 272 8.0 12.9 0.00 0.00 0.00 73 1014.3
20260506233743 22 330 9.7 12.9 0.00 0.00 0.00 73 1014.3
20260506233239 21 306 4.8 6.4 0.00 0.00 0.00 74 1014.3
20260506232735 22 307 8.0 11.3 0.00 0.00 0.00 72 1014.3
20260506232230 21 349 3.2 4.8 0.00 0.00 0.00 72 1014.5
20260506231728 22 290 9.7 12.9 0.00 0.00 0.00 68 1014.4
20260506231226 22 226 9.7 12.9 0.00 0.00 0.00 69 1014.5
20260506230723 21 297 3.2 4.8 0.00 0.00 0.00 74 1014.5
20260506230219 21 264 3.2 4.8 0.00 0.00 0.00 70 1014.2
20260506225715 21 320 6.4 9.7 0.00 0.00 0.00 70 1014.6
20260506225213 21 293 8.0 9.7 0.00 0.00 0.00 75 1014.7
20260506224709 22 339 8.0 11.3 0.00 0.00 0.00 73 1014.5
20260506224207 22 310 4.8 6.4 0.00 0.00 0.00 73 1014.7
20260506223703 21 340 3.2 4.8 0.00 0.00 0.00 74 1014.7
20260506223158 21 252 6.4 9.7 0.00 0.00 0.00 75 1014.8
20260506222656 22 299 9.7 11.3 0.00 0.00 0.00 72 1014.9
20260506222151 22 297 11.3 14.5 0.00 0.00 0.00 72 1015.0
20260506221650 22 268 6.4 6.4 0.00 0.00 0.00 73 1014.9
20260506221147 21 279 8.0 11.3 0.00 0.00 0.00 73 1015.0
20260506220644 22 295 6.4 11.3 0.00 0.00 0.00 73 1014.9
20260506220139 21 220 6.4 9.7 0.00 0.00 0.00 76 1015.1
20260506215636 21 297 8.0 11.3 0.00 0.00 0.00 76 1015.2
20260506215131 21 283 12.9 16.1 0.00 0.00 0.00 73 1015.2
20260506214628 22 273 8.0 12.9 0.00 0.00 0.00 71 1015.1
20260506214126 21 351 3.2 4.8 0.00 0.00 0.00 73 1015.1
20260506213624 21 317 9.7 12.9 0.00 0.00 0.00 73 1015.4
20260506213121 22 306 12.9 14.5 0.00 0.00 0.00 72 1015.2
20260506212618 21 282 6.4 6.4 0.00 0.00 0.00 74 1015.3
20260506212113 21 294 8.0 9.7 0.00 0.00 0.00 74 1015.6
20260506211608 22 298 8.0 11.3 0.00 0.00 0.00 72 1015.4
20260506211106 22 276 9.7 12.9 0.00 0.00 0.00 72 1015.5
20260506210602 22 300 4.8 6.4 0.00 0.00 0.00 70 1015.5
20260506210059 22 287 8.0 11.3 0.00 0.00 0.00 72 1015.6
20260506205556 22 274 11.3 16.1 0.00 0.00 0.00 71 1015.5
20260506205051 22 282 6.4 6.4 0.00 0.00 0.00 73 1015.7
20260506204549 21 296 6.4 11.3 0.00 0.00 0.00 73 1015.5
20260506204046 22 273 3.2 4.8 0.00 0.00 0.00 74 1015.6
20260506203544 22 294 6.4 11.3 0.00 0.00 0.00 73 1015.8
20260506203040 22 294 8.0 11.3 0.00 0.00 0.00 72 1015.5
20260506202538 22 210 4.8 4.8 0.00 0.00 0.00 70 1015.8
20260506202034 21 289 8.0 11.3 0.00 0.00 0.00 71 1015.8
20260506201532 21 294 9.7 14.5 0.00 0.00 0.00 72 1015.9
20260506201028 21 262 8.0 12.9 0.00 0.00 0.00 72 1015.9
20260506200524 22 296 9.7 14.5 0.00 0.00 0.00 72 1015.9
20260506200021 21 336 3.2 4.8 0.00 0.00 0.00 72 1015.8
20260506195518 22 318 9.7 12.9 0.00 0.00 0.00 73 1016.0
20260506195014 22 266 6.4 6.4 0.00 0.00 0.00 72 1015.9
20260506194512 22 276 9.7 11.3 0.00 0.00 0.00 72 1016.2
20260506194009 22 316 3.2 4.8 0.00 0.00 0.00 72 1016.2
20260506193506 21 314 8.0 9.7 0.00 0.00 0.00 74 1016.2
20260506193003 21 295 12.9 16.1 0.00 0.00 0.00 73 1016.3
20260506192500 22 337 6.4 9.7 0.00 0.00 0.00 70 1016.3
20260506191955 22 307 4.8 4.8 0.00 0.00 0.00 71 1016.0
20260506191453 21 329 6.4 9.7 0.00 0.00 0.00 72 1016.0
20260506190949 22 266 9.7 12.9 0.00 0.00 0.00 71 1016.2
20260506190446 21 233 8.0 9.7 0.00 0.00 0.00 72 1016.3
20260506185942 22 270 9.7 11.3 0.00 0.00 0.00 71 1016.2
20260506185439 21 217 6.4 6.4 0.00 0.00 0.00 73 1016.2
20260506184936 21 214 6.4 6.4 0.00 0.00 0.00 73 1016.3
20260506184433 21 285 9.7 12.9 0.00 0.00 0.00 72 1016.4
20260506183930 21 291 6.4 9.7 0.00 0.00 0.00 73 1016.5
20260506183425 21 266 3.2 3.2 0.00 0.00 0.00 73 1016.7
20260506182923 21 238 3.2 6.4 0.00 0.00 0.00 72 1016.7
20260506182420 21 282 6.4 11.3 0.00 0.00 0.00 72 1016.6
20260506181917 21 268 4.8 6.4 0.00 0.00 0.00 73 1016.7
20260506181415 21 313 6.4 9.7 0.00 0.00 0.00 73 1016.7
20260506180912 21 237 4.8 6.4 0.00 0.00 0.00 73 1016.6
20260506180408 21 235 8.0 9.7 0.00 0.00 0.00 73 1017.0
20260506175905 21 226 4.8 6.4 0.00 0.00 0.00 74 1016.9
20260506175401 21 271 9.7 14.5 0.00 0.00 0.00 75 1016.9
20260506174858 20 283 3.2 4.8 0.00 0.00 0.00 75 1017.1
20260506174356 21 295 3.2 3.2 0.00 0.00 0.00 75 1017.0
20260506173853 21 224 3.2 3.2 0.00 0.00 0.00 72 1016.8
20260506173350 20 62 3.2 3.2 0.00 0.00 0.00 75 1016.9
20260506172847 20 261 4.8 4.8 0.00 0.00 0.00 75 1017.0
20260506172343 20 332 1.6 1.6 0.00 0.00 0.00 77 1017.1
20260506171841 20 335 1.6 1.6 0.00 0.00 0.00 75 1017.1
20260506171338 21 316 4.8 6.4 0.00 0.00 0.00 76 1017.1
20260506170836 21 328 3.2 3.2 0.00 0.00 0.00 72 1017.1
20260506170332 21 339 1.6 1.6 0.00 0.00 0.00 68 1017.3
20260506165831 21 343 0.0 1.6 0.00 0.00 0.00 71 1017.2
20260506165328 20 346 0.0 0.0 0.00 0.00 0.00 72 1017.2
20260506164819 20 335 0.0 1.6 0.00 0.00 0.00 73 1017.3
20260506164316 19 335 3.2 3.2 0.00 0.00 0.00 75 1017.4
20260506163813 19 328 3.2 6.4 0.00 0.00 0.00 76 1017.3
20260506163308 20 337 3.2 3.2 0.00 0.00 0.00 74 1017.2
20260506162803 20 348 1.6 1.6 0.00 0.00 0.00 74 1017.3
20260506162301 20 342 3.2 3.2 0.00 0.00 0.00 75 1017.1